Miscellaneous Local Product
Issued by NWS North Platte, NE

Home | Current Version | Previous Version | Graphics & Text | Print | Product List | Glossary On
Versions: 1 2 3 4 5 6 7 8 9 10 11 12 13 14 15 16 17 18 19 20 21 22 23 24 25 26 27 28 29 30 31 32 33 34 35 36 37 38 39 40 41 42 43 44 45 46 47 48 49 50
000
AXUS43 KLBF 262210
MISLBF


WESTERN AND NORTH CENTRAL NEBRASKA HOURLY WEATHER ROUNDUP
NATIONAL WEATHER SERVICE NORTH PLATTE NE
400 PM CST MON JAN 26 2015

***STATIONS NOT REPORTING VARIABLES SUCH AS SKY/WEATHER OR
PRESSURE ARE PROVIDED BY THE NEBRASKA DEPARTMENT OF
ROADS...RAWS...AND APRS NETWORKS...AND ARE NOT UNDER
NATIONAL WEATHER SERVICE QUALITY CONTROL***

...OBSERVATIONS IN AND NEAR THE EASTERN PANHANDLE OF NEBRASKA...

CITY           SKY/WX    TMP DP  RH WIND       PRES   REMARKS
PINE RIDGE     SUNNY     63  32  31 W6        30.05S
CHADRON        SUNNY     64  34  32 W14       30.06S
ALLIANCE       SUNNY     64  36  35 NW9       30.09S
SIDNEY         SUNNY     67  30  25 N13       30.14S
WHITECLAY        N/A     62  33  33 W7          N/A
CRESCENT LAKE    N/A     66  32  27 NW10G17     N/A
LISCO            N/A     69  25  19 W13         N/A
LEWELLEN         N/A     65  28  25 W13         N/A
$$

...OBSERVATIONS IN NORTH CENTRAL NEBRASKA...

CITY           SKY/WX    TMP DP  RH WIND       PRES   REMARKS
VALENTINE      SUNNY     62  33  33 NW13      30.02R
THEDFORD       SUNNY     65  33  30 NW16G22   30.04S
AINSWORTH      SUNNY     59  33  37 NW12      30.02R
O`NEILL        SUNNY     58  33  39 NW8       30.00R
ORD            SUNNY     61  33  35 N15       29.99R
BROKEN BOW     SUNNY     65  34  31 NW21G28   30.02R
BROWNLEE         N/A     64  29  27 NW16        N/A
VALENTINE NWR    N/A     62  32  32 NW16G23     N/A
HALSEY           N/A     65  30  27 NW12G23     N/A
BREWSTER         N/A     66  34  30 W15         N/A
SPRINGVIEW       N/A     60  37  43 NW8G16      N/A
ROSE             N/A     63  40  43 W12         N/A
NEWPORT          N/A     59  30  33 NW14        N/A
SARGENT          N/A     63  36  36 NW5G12      N/A
COMSTOCK         N/A     68  35  29 S13         N/A
CHAMBERS         N/A     59  31  35 N6G13       N/A
EWING            N/A     56  35  45 NW6         N/A
$$

...OBSERVATIONS IN SOUTHWEST NEBRASKA AND FAR NORTHEAST COLORADO...

CITY           SKY/WX    TMP DP  RH WIND       PRES   REMARKS
WRAY           FAIR      69  29  22 W7        30.14S
HOLYOKE        FAIR      72  30  21 N13       30.12S
IMPERIAL       SUNNY     67  29  24 NW17      30.10R
OGALLALA       SUNNY     67  32  28 NW9       30.09S
NORTH PLATTE   SUNNY     67  29  24 NW17G30   30.05S
MCCOOK         SUNNY     71  29  21 NW20G29   30.06R
LEXINGTON      SUNNY     68  31  25 N21       30.03S
BRADY            N/A     68  33  27 CALM        N/A
GOTHENBURG       N/A     67  29  24 NW12        N/A
CALLAWAY         N/A     64  35  34 NW13        N/A
$$

...NORTH PLATTE AREA...

CITY           SKY/WX    TMP DP  RH WIND       PRES   REMARKS
AIRPORT        SUNNY     67  29  24 NW17G30   30.05S
$$

...SOME WEATHER OBSERVATIONS FROM AROUND THE REGION...

CITY           SKY/WX    TMP DP  RH WIND       PRES   REMARKS
DENVER         MOSUNNY   71  19  14 N6        30.20F
LARAMIE        SUNNY     55  25  31 N12       30.29R
CHEYENNE       SUNNY     66  19  16 NW16      30.21S
SCOTTSBLUFF    SUNNY     65  37  35 W9        30.11F
RAPID CITY     SUNNY     67  30  25 N13       30.01S
PIERRE         SUNNY     57  28  33 NW10      29.98R
WINNER         FAIR      60  29  30 NW10      30.00R
SIOUX FALLS    MOSUNNY   47  36  65 NW16      29.92R
OMAHA          MOSUNNY   57  35  43 NW17      29.94R
GRAND ISLAND   SUNNY     62  34  35 N15       30.00R
KANSAS CITY    MOSUNNY   60  34  37 NW13      29.91R
WICHITA        MOSUNNY   74  33  22 NW14      29.98S
HAYS           SUNNY     72  30  21 NW20      30.03S
LIBERAL        SUNNY     72  30  21 NW13      30.16R
GOODLAND       SUNNY     68  30  24 NW14      30.14R
$$



USA.gov is the U.S. government's official web portal to all federal, state and local government web resources and services.